Location: Alphen
(52.1351°N, 4.6549°E)
Time: 01:47:40
(UTC+00:00)

METEOR-M - Pass Details

Date: 27 January 2021
Orbit: 816 x 819 km, 98.5° (Epoch: 27 February)

Event Time Altitude Azimuth Distance (km) Brightness Sun altitude
Rises 04:24:25 0° 15° (NNE) 3,364 7.6 -28.1°
Reaches altitude 10° 04:26:47 10° 17° (NNE) 2,427 6.8 -27.8°
Maximum altitude 04:32:10 77° 104° (ESE) 847 4.2 -26.9°
Enters shadow 04:34:34 34° 185° (S) 1,321 5.1 -26.6°
